Regional Weather Roundup
Issued by NWS Bismarck, ND

Home | Current Version | Previous Version | Text Only | Print | Product List | Glossary On
Versions: 1 2 3 4 5 6 7 8 9 10 11 12 13 14 15 16 17 18 19 20 21 22 23 24 25 26 27 28 29 30 31 32 33 34 35 36 37 38 39 40 41 42 43 44 45 46 47 48 49 50
000
ASUS43 KBIS 242310
RWRBIS

NWR BROADCAST TEXT
NATIONAL WEATHER SERVICE BISMARCK ND
600 PM CDT FRI OCT 24 2014

NOTE: "FAIR" INDICATES FEW OR NO CLOUDS BELOW 12,000 FEET WITH NO
SIGNIFICANT WEATHER AND/OR OBSTRUCTIONS TO VISIBILITY.


CITY           SKY/WX    TMP DP  RH WIND       PRES   REMARKS
WILLISTON      MOCLDY    59  26  28 W15G23    29.96R
MINOT          CLEAR     61  27  27 W15G23    29.89R
MINOT AFB      CLEAR     60  30  32 W16G24    29.87R
BISMARCK       MOCLDY    64  34  32 W14       29.95R
DICKINSON      CLOUDY    57  30  35 W12       30.00R
GARRISON         N/A     60  30  32 NW17      29.92R
HETTINGER ARPT CLOUDY    59  32  36 NW12      30.02S
JAMESTOWN      CLEAR     63  33  32 W15       29.88R
BEACH            N/A     57  27  30 W13       30.03S
CARRINGTON     FAIR      63  32  31 W20G28    29.88R
CROSBY         FAIR      55  27  33 W20G29    29.92R
HARVEY         FAIR      63  28  27 W15G26    29.88R
HAZEN          MOCLDY    61  28  29 W14G21    29.96R
LINTON         FAIR      64  39  39 NW12      29.96R
MANDAN         MOCLDY    61  36  39 W13       29.97R
OAKES            N/A     68  45  42 W13       29.87R
RUGBY          FAIR      59  34  38 W18G25    29.85R
STANLEY        FAIR      55  28  35 W12G18    29.93R
TIOGA          FAIR      54  28  37 W13       29.97R
$$

CITY           SKY/WX    TMP DP  RH WIND       PRES   REMARKS
GRAND FORKS    PTCLDY    66  32  28 W14       29.78R
GRAND FORKS AF PTCLDY    66  31  27 W9        29.80R
DEVILS LAKE    CLEAR     63  32  31 W18       29.82R
FARGO          PTCLDY    72  40  31 W20       29.80R
CANDO          FAIR      59  32  36 W20G28    29.83R
CAVALIER       FAIR      64  34  32 NW24G32   29.74R
GRAFTON        FAIR      63  34  34 W22G29    29.76R
GWINNER        CLEAR     72  43  35 W9        29.87R
LANGDON        FAIR      61  32  33 NW29G40   29.78R
ROLLA          FAIR      57  32  38 W14G24    29.82R
WALHALLA         N/A     63  36  36 W21G31    29.75R
$$

CITY           SKY/WX    TMP DP  RH WIND       PRES   REMARKS
ABERDEEN       CLEAR     73  40  30 W9        29.90R
MOBRIDGE       PTCLDY    69  37  30 NW10      29.94R
BUFFALO          N/A     60  29  30 NW12      30.00R
RAPID CITY     CLEAR     67  39  35 N10       30.04R
GLASGOW        PTCLDY    59  27  29 NW15      30.00R
SIDNEY         CLOUDY    61  27  27 W13       30.01S
WOLF POINT     MOCLDY    61  31  32 W14       30.00R
GLENDIVE       CLOUDY    57  30  35 W9        30.04R
MILES CITY     CLOUDY    60  32  34 NW8       30.06S
BAKER          CLOUDY    57  30  35 W8        30.06R
$$

CITY           SKY/WX    TMP DP  RH WIND       PRES   REMARKS
BILLINGS       CLOUDY    57  37  47 NE5       30.07R
GREAT FALLS    CLOUDY    54  35  48 SW12      30.04R
REGINA         PTCLDY    54  32  43 W18G28    29.89R
ESTEVAN        PTCLDY    57  28  33 W18G25    29.90R
$$




USA.gov is the U.S. government's official web portal to all federal, state and local government web resources and services.